Satellite-Ground Cal/Val Region Overpasses Predictions

Prediction of Satellite NPP Overpassing Cal/Val Region: PacNW

Region Location: (Latitude: 10.00, Longitude: 139.50) to (Latitude: 22.70, Longitude: 165.60).

Table of predicted overpasses for the next 14.0 days since TLE Epoch: 4/8/2023
Interval Starting Time Starting Location Ending Time Ending Location
1 04/08/2023 14:54:33 ( 22.69, 161.94) 04/08/2023 14:58:09 ( 10.01, 158.91)
2 04/09/2023 03:45:09 ( 10.03, 144.06) 04/09/2023 03:48:44 ( 22.65, 141.05)
3 04/09/2023 14:36:49 ( 18.19, 165.59) 04/09/2023 14:39:08 ( 10.03, 163.67)
4 04/09/2023 16:17:03 ( 22.64, 141.31) 04/09/2023 16:19:09 ( 15.25, 139.51)
5 04/10/2023 03:26:07 ( 10.01, 148.82) 04/10/2023 03:29:43 ( 22.69, 145.80)
6 04/10/2023 15:58:01 ( 22.66, 146.07) 04/10/2023 16:01:36 ( 10.04, 143.06)
7 04/11/2023 03:07:07 ( 10.05, 153.57) 04/11/2023 03:10:42 ( 22.67, 150.56)
8 04/11/2023 15:39:00 ( 22.67, 150.83) 04/11/2023 15:42:35 ( 10.05, 147.82)
9 04/12/2023 02:48:05 ( 10.04, 158.33) 04/12/2023 02:51:40 ( 22.66, 155.32)
10 04/12/2023 15:19:58 ( 22.69, 155.60) 04/12/2023 15:23:34 ( 10.01, 152.57)
11 04/13/2023 02:29:04 ( 10.03, 163.09) 04/13/2023 02:32:39 ( 22.65, 160.08)
12 04/13/2023 15:00:58 ( 22.64, 160.34) 04/13/2023 15:04:33 ( 10.02, 157.33)
13 04/14/2023 02:12:46 ( 19.65, 165.59) 04/14/2023 02:13:38 ( 22.69, 164.83)
14 04/14/2023 03:51:32 ( 10.02, 142.48) 04/14/2023 03:55:05 ( 22.52, 139.50)
15 04/14/2023 14:41:56 ( 22.65, 165.11) 04/14/2023 14:45:31 ( 10.03, 162.09)
16 04/14/2023 16:23:26 ( 22.65, 139.73) 04/14/2023 16:23:41 ( 21.77, 139.51)
17 04/15/2023 03:32:31 ( 10.01, 147.24) 04/15/2023 03:36:07 ( 22.69, 144.22)
18 04/15/2023 16:04:25 ( 22.66, 144.49) 04/15/2023 16:08:00 ( 10.04, 141.48)
19 04/16/2023 03:13:31 ( 10.06, 151.99) 04/16/2023 03:17:06 ( 22.68, 148.98)
20 04/16/2023 15:45:23 ( 22.67, 149.25) 04/16/2023 15:48:58 ( 10.05, 146.24)
21 04/17/2023 02:54:29 ( 10.05, 156.75) 04/17/2023 02:58:04 ( 22.67, 153.74)
22 04/17/2023 15:26:22 ( 22.67, 154.01) 04/17/2023 15:29:57 ( 10.05, 151.00)
23 04/18/2023 02:35:28 ( 10.05, 161.51) 04/18/2023 02:39:03 ( 22.67, 158.50)
24 04/18/2023 15:07:20 ( 22.68, 158.77) 04/18/2023 15:10:56 ( 10.00, 155.75)
25 04/19/2023 02:17:16 ( 12.98, 165.59) 04/19/2023 02:20:01 ( 22.66, 163.26)
26 04/19/2023 03:57:56 ( 10.04, 140.90) 04/19/2023 03:59:38 ( 16.04, 139.50)
27 04/19/2023 14:48:19 ( 22.68, 163.54) 04/19/2023 14:51:55 ( 10.01, 160.51)
28 04/20/2023 03:38:55 ( 10.04, 145.66) 04/20/2023 03:42:30 ( 22.66, 142.65)
29 04/20/2023 14:32:29 ( 11.42, 165.60) 04/20/2023 14:32:53 ( 10.01, 165.27)
30 04/20/2023 16:10:47 ( 22.68, 142.92) 04/20/2023 16:14:23 ( 10.00, 139.90)
31 04/21/2023 03:19:53 ( 10.04, 150.42) 04/21/2023 03:23:28 ( 22.66, 147.41)
32 04/21/2023 15:51:46 ( 22.68, 147.68) 04/21/2023 15:55:22 ( 10.01, 144.66)
